カタログに戻る

STARLINK-37914

運用中通信VLEO
NORAD 69964·PAYLOAD·🇺🇸 United States

打ち上げ Jul 9, 2026 から Cape Canaveral Space Force Station

Loading…

次のパス (今後24時間)

TLE

最新Source: CelesTrak SupGP

元期: Sep 14, 2026, 22:55 UTC

1 69964C 26157X   26257.95534722 -.00013005  00000+0 -38446-3 0  2579
2 69964  53.1595 359.6223 0001357  79.9305 219.9338 15.34378408    12

AllMySatでSTARLINK-37914をリアルタイム追跡

Download on the App Store